カタログに戻る

STARLINK-34866

運用中通信SSO
NORAD 65189·PAYLOAD·🇺🇸 United States

打ち上げ Aug 14, 2025 から Vandenberg Space Force Base

Loading…

次のパス (今後24時間)

TLE

最新Source: CelesTrak SupGP

元期: Sep 14, 2026, 21:15 UTC

1 65189C 25175R   26257.88590278 -.00028537  00000+0 -88635-3 0  2574
2 65189  97.2842 126.9284 0001997  94.4140 175.8215 15.33434404    14

AllMySatでSTARLINK-34866をリアルタイム追跡

Download on the App Store